GW3513 Weather Reports


Display with metric or nautical units.
time (UTC)temp
F
wind
direction
speed
MPH
gust
MPH
rain 1hr
in
rain 24hr
in
rain mn
in
humidity
%
barometer
mb
20260502182116 79 161 0.0 0.0 0.00 0.00 0.00 32 1022.9
20260502181614 77 160 0.0 0.0 0.00 0.00 0.00 30 1022.8
20260502181113 75 161 0.0 0.0 0.00 0.00 0.00 32 1022.8
20260502180610 77 160 0.0 0.0 0.00 0.00 0.00 30 1022.9
20260502180107 80 161 0.0 0.0 0.00 0.00 0.00 31 1022.9
20260502164013 70 160 0.0 0.0 0.00 0.00 0.00 42 1023.2
20260502163509 71 160 0.0 0.0 0.00 0.00 0.00 40 1023.2
20260502163006 72 160 0.0 0.0 0.00 0.00 0.00 41 1023.2
20260502162503 73 160 0.0 0.0 0.00 0.00 0.00 41 1023.1
20260502162000 72 160 0.0 0.0 0.00 0.00 0.00 44 1023.2
20260502161456 69 160 0.0 0.0 0.00 0.00 0.00 45 1023.3
20260502160955 70 160 0.0 0.0 0.00 0.00 0.00 41 1023.2
20260502160452 68 160 0.0 0.0 0.00 0.00 0.00 47 1023.2
20260502151935 63 160 0.0 0.0 0.00 0.00 0.00 53 1023.1
20260502151431 62 160 0.0 0.0 0.00 0.00 0.00 57 1023.0
20260502150929 62 160 0.0 0.0 0.00 0.00 0.00 58 1023.1
20260502150426 62 160 0.0 0.0 0.00 0.00 0.00 56 1023.0
20260502130312 48 161 0.0 0.0 0.00 0.00 0.00 81 1022.2
20260502123757 45 161 0.0 0.0 0.00 0.00 0.00 90 1022.2
20260502123254 44 161 0.0 0.0 0.00 0.00 0.00 90 1022.1
20260502122750 43 161 0.0 0.0 0.00 0.00 0.00 93 1022.1
20260502122246 42 161 0.0 0.0 0.00 0.00 0.00 94 1021.9
20260502121745 41 161 0.0 0.0 0.00 0.00 0.00 96 1022.0
20260502121243 40 161 0.0 0.0 0.00 0.00 0.00 98 1021.9
20260502120739 39 161 0.0 0.0 0.00 0.00 0.00 98 1021.7
20260502120236 39 161 0.0 0.0 0.00 0.00 0.00 98 1021.6
20260502115734 38 161 0.0 0.0 0.00 0.00 0.00 97 1021.4
20260502115230 38 160 0.0 0.0 0.00 0.00 0.00 97 1021.7
20260502114726 38 160 0.0 0.0 0.00 0.00 0.00 97 1021.4
20260502114224 39 160 0.0 0.0 0.00 0.00 0.00 97 1021.3
20260502113720 39 160 0.0 0.0 0.00 0.00 0.00 96 1021.4
20260502113218 39 160 0.0 0.0 0.00 0.00 0.00 96 1021.1
20260502112716 40 160 0.0 0.0 0.00 0.00 0.00 97 1021.2
20260502112214 39 160 0.0 0.0 0.00 0.00 0.00 97 1021.1
20260502111710 40 160 0.0 0.0 0.00 0.00 0.00 97 1021.4
20260502111208 40 160 0.0 0.0 0.00 0.00 0.00 97 1021.6
20260502110706 39 160 0.0 0.0 0.00 0.00 0.00 98 1021.2
20260502110203 39 160 0.0 0.0 0.00 0.00 0.00 97 1021.2
20260502105700 39 160 0.0 0.0 0.00 0.00 0.00 97 1021.1
20260502105157 39 160 0.0 0.0 0.00 0.00 0.00 97 1021.3
20260502104654 39 160 0.0 0.0 0.00 0.00 0.00 98 1021.0
20260502104152 39 160 0.0 0.0 0.00 0.00 0.00 98 1021.2
20260502103649 38 160 0.0 0.0 0.00 0.00 0.00 98 1021.1
20260502103147 38 160 0.0 0.0 0.00 0.00 0.00 98 1020.9
20260502102644 38 160 0.0 0.0 0.00 0.00 0.00 97 1020.9
20260502102140 38 160 0.0 0.0 0.00 0.00 0.00 97 1021.0
20260502101638 37 160 0.0 0.0 0.00 0.00 0.00 97 1020.7
20260502101137 37 160 0.0 0.0 0.00 0.00 0.00 96 1020.8
20260502100634 38 160 0.0 0.0 0.00 0.00 0.00 96 1020.7
20260502100133 38 161 0.0 0.0 0.00 0.00 0.00 96 1020.5
20260502091107 40 161 0.0 0.0 0.00 0.00 0.00 91 1020.4
20260502090604 40 161 0.0 0.0 0.00 0.00 0.00 90 1020.3
20260502071458 39 161 0.0 0.0 0.00 0.00 0.00 95 1020.3
20260502070956 39 161 0.0 0.0 0.00 0.00 0.00 94 1020.4
20260502070454 39 161 0.0 0.0 0.00 0.00 0.00 94 1020.2
20260502065952 39 161 0.0 0.0 0.00 0.00 0.00 94 1020.2
20260502065450 39 161 0.0 0.0 0.00 0.00 0.00 93 1020.3
20260502064948 39 161 0.0 0.0 0.00 0.00 0.00 92 1020.2
20260502064445 40 161 0.0 0.0 0.00 0.00 0.00 92 1020.5
20260502063942 40 161 0.0 0.0 0.00 0.00 0.00 92 1020.4
20260502063440 40 161 0.0 0.0 0.00 0.00 0.00 92 1020.3
20260502062938 40 161 0.0 0.0 0.00 0.00 0.00 93 1020.4
20260502062434 40 161 0.0 0.0 0.00 0.00 0.00 94 1020.4
20260502061933 40 161 0.0 0.0 0.00 0.00 0.00 93 1020.5
20260502061431 40 161 0.0 0.0 0.00 0.00 0.00 93 1020.5
20260502060927 40 161 0.0 0.0 0.00 0.00 0.00 92 1020.5
20260502060422 40 161 0.0 0.0 0.00 0.00 0.00 92 1020.5
20260502055919 41 161 0.0 0.0 0.00 0.00 0.00 92 1020.8
20260502055417 41 161 0.0 0.0 0.00 0.00 0.00 93 1020.6
20260502054912 41 161 0.0 0.0 0.00 0.00 0.00 91 1020.6
20260502054409 42 161 0.0 0.0 0.00 0.00 0.00 91 1020.7
20260502053906 42 161 0.0 0.0 0.00 0.00 0.00 89 1020.6
20260502053405 42 161 0.0 0.0 0.00 0.00 0.00 89 1020.7
20260502052901 42 161 0.0 0.0 0.00 0.00 0.00 90 1020.8
20260502052359 43 161 0.0 0.0 0.00 0.00 0.00 90 1020.7
20260502051856 43 161 0.0 0.0 0.00 0.00 0.00 89 1020.6
20260502051355 43 161 0.0 0.0 0.00 0.00 0.00 90 1020.6
20260502050851 43 161 0.0 0.0 0.00 0.00 0.00 88 1020.5
20260502050347 43 161 0.0 0.0 0.00 0.00 0.00 87 1020.7
20260502045844 44 161 0.0 0.0 0.00 0.00 0.00 84 1020.4
20260502045341 44 161 0.0 0.0 0.00 0.00 0.00 85 1020.4
20260502044838 44 161 0.0 0.0 0.00 0.00 0.00 85 1020.6
20260502044334 44 161 0.0 0.0 0.00 0.00 0.00 87 1020.5
20260502043831 43 161 0.0 0.0 0.00 0.00 0.00 87 1020.7
20260502043329 42 161 0.0 0.0 0.00 0.00 0.00 85 1020.7
20260502042829 42 161 0.0 0.0 0.00 0.00 0.00 89 1020.5
20260502042326 42 161 0.0 0.0 0.00 0.00 0.00 89 1020.5
20260502041823 42 161 0.0 0.0 0.00 0.00 0.00 88 1020.7
20260502041320 43 161 0.0 0.0 0.00 0.00 0.00 89 1020.7
20260502040818 42 161 0.0 0.0 0.00 0.00 0.00 84 1020.7
20260502040315 43 161 0.0 0.0 0.00 0.00 0.00 83 1020.8
20260502035810 43 161 0.0 0.0 0.00 0.00 0.00 84 1020.8
20260502035307 44 161 0.0 0.0 0.00 0.00 0.00 84 1020.8
20260502034805 45 161 0.0 0.0 0.00 0.00 0.00 83 1020.7
20260502034303 45 161 0.0 0.0 0.00 0.00 0.00 84 1021.0
20260502033801 46 161 0.0 0.0 0.00 0.00 0.00 75 1020.9
20260502033258 46 161 0.0 0.0 0.00 0.00 0.00 77 1020.9
20260502032755 45 161 0.0 0.0 0.00 0.00 0.00 79 1020.9
20260502032251 45 161 0.0 0.0 0.00 0.00 0.00 82 1021.0
20260502031749 45 161 0.0 0.0 0.00 0.00 0.00 83 1020.9
20260502031247 45 161 0.0 0.0 0.00 0.00 0.00 81 1020.9
20260502030745 46 161 0.0 0.0 0.00 0.00 0.00 80 1020.9
20260502030243 46 161 0.0 0.0 0.00 0.00 0.00 79 1020.9
20260502025740 46 161 0.0 0.0 0.00 0.00 0.00 78 1021.0
20260502025238 46 161 0.0 0.0 0.00 0.00 0.00 77 1020.9
20260502024735 46 161 0.0 0.0 0.00 0.00 0.00 78 1020.9
20260502024233 46 161 0.0 0.0 0.00 0.00 0.00 78 1020.9
20260502023731 47 161 0.0 0.0 0.00 0.00 0.00 77 1021.0
20260502023228 47 161 0.0 0.0 0.00 0.00 0.00 76 1020.9
20260502022726 47 161 0.0 0.0 0.00 0.00 0.00 75 1020.9
20260502022222 47 161 0.0 0.0 0.00 0.00 0.00 77 1020.7
20260502021719 47 161 0.0 0.0 0.00 0.00 0.00 77 1020.7
20260502021216 48 161 0.0 0.0 0.00 0.00 0.00 74 1020.8
20260502020713 48 161 0.0 0.0 0.00 0.00 0.00 72 1020.7
20260502020210 48 161 0.0 0.0 0.00 0.00 0.00 71 1020.5
20260502015709 49 161 0.0 0.0 0.00 0.00 0.00 70 1020.4
20260502015204 49 161 0.0 0.0 0.00 0.00 0.00 69 1020.4
20260502014702 50 161 0.0 0.0 0.00 0.00 0.00 67 1020.4
20260502014159 50 161 0.0 0.0 0.00 0.00 0.00 67 1020.3
20260502013655 50 161 0.0 0.0 0.00 0.00 0.00 65 1020.3
20260502013150 51 161 0.0 0.0 0.00 0.00 0.00 66 1020.2
20260502012648 52 161 0.0 0.0 0.00 0.00 0.00 62 1020.1
20260502012146 53 161 0.0 0.0 0.00 0.00 0.00 56 1020.2
20260502011642 54 161 0.0 0.0 0.00 0.00 0.00 49 1019.9
20260502011138 55 161 0.0 0.0 0.00 0.00 0.00 47 1019.8
20260502010636 56 161 0.0 0.0 0.00 0.00 0.00 49 1019.8
20260502010132 57 161 0.0 0.0 0.00 0.00 0.00 49 1019.7
20260502005630 58 161 0.0 0.0 0.00 0.00 0.00 46 1019.5
20260502005127 59 161 0.0 0.0 0.00 0.00 0.00 44 1019.6
20260502004623 60 161 0.0 0.0 0.00 0.00 0.00 43 1019.5
20260502004120 61 161 0.0 0.0 0.00 0.00 0.00 43 1019.6
20260502003618 62 161 0.0 0.0 0.00 0.00 0.00 39 1019.5
20260502003114 63 161 0.0 0.0 0.00 0.00 0.00 37 1019.4
20260502002610 63 161 0.0 0.0 0.00 0.00 0.00 35 1019.2
20260502002108 64 161 0.0 0.0 0.00 0.00 0.00 35 1019.3
20260502001606 64 161 0.0 0.0 0.00 0.00 0.00 35 1019.2
20260502001103 64 161 0.0 0.0 0.00 0.00 0.00 33 1019.1
20260502000601 64 161 0.0 0.0 0.00 0.00 0.00 36 1019.0
20260502000058 65 161 0.0 0.0 0.00 0.00 0.00 35 1019.0
20260501235553 65 161 0.0 0.0 0.00 0.00 0.00 33 1018.9
20260501235050 66 161 0.0 0.0 0.00 0.00 0.00 31 1018.9
20260501234545 67 161 0.0 0.0 0.00 0.00 0.00 30 1019.3
20260501234043 67 161 0.0 0.0 0.00 0.00 0.00 33 1019.2
20260501233541 68 161 0.0 0.0 0.00 0.00 0.00 31 1019.1
20260501233038 69 161 0.0 0.0 0.00 0.00 0.00 29 1019.3
20260501232534 69 161 0.0 0.0 0.00 0.00 0.00 30 1019.0
20260501232032 69 161 0.0 0.0 0.00 0.00 0.00 29 1019.3
20260501231529 71 161 0.0 0.0 0.00 0.00 0.00 30 1019.1
20260501231027 71 161 0.0 0.0 0.00 0.00 0.00 30 1019.1
20260501230526 71 161 0.0 0.0 0.00 0.00 0.00 28 1019.1
20260501230023 72 161 0.0 0.0 0.00 0.00 0.00 26 1019.2
20260501225521 75 161 0.0 0.0 0.00 0.00 0.00 26 1019.0
20260501225016 75 161 0.0 0.0 0.00 0.00 0.00 31 1019.0
20260501224515 74 161 0.0 0.0 0.00 0.00 0.00 29 1019.0
20260501224011 74 161 0.0 0.0 0.00 0.00 0.00 29 1019.0
20260501223508 76 161 0.0 0.0 0.00 0.00 0.00 28 1019.0
20260501223004 76 161 0.0 0.0 0.00 0.00 0.00 28 1019.1
20260501222500 76 161 0.0 0.0 0.00 0.00 0.00 24 1018.9
20260501221956 76 161 0.0 0.0 0.00 0.00 0.00 27 1019.1
20260501221454 78 161 0.0 0.0 0.00 0.00 0.00 24 1019.0
20260501220952 80 161 0.0 0.0 0.00 0.00 0.00 25 1019.0
20260501220449 82 161 0.0 1.0 0.00 0.00 0.00 22 1019.0
20260501215945 82 161 0.0 0.0 0.00 0.00 0.00 24 1019.1
20260501215442 81 161 0.0 0.0 0.00 0.00 0.00 26 1018.7
20260501214937 81 161 0.0 0.0 0.00 0.00 0.00 23 1019.1
20260501214433 82 160 0.0 0.0 0.00 0.00 0.00 25 1018.9
20260501213928 81 161 0.0 0.0 0.00 0.00 0.00 23 1019.1
20260501213426 82 161 0.0 0.0 0.00 0.00 0.00 23 1019.3
20260501212921 82 161 0.0 0.0 0.00 0.00 0.00 24 1019.2
20260501212418 83 161 0.0 0.0 0.00 0.00 0.00 24 1019.3
20260501211915 86 161 0.0 0.0 0.00 0.00 0.00 22 1019.5
20260501211412 87 161 0.0 0.0 0.00 0.00 0.00 19 1019.7
20260501210910 88 161 0.0 0.0 0.00 0.00 0.00 20 1019.7
20260501210406 93 161 0.0 0.0 0.00 0.00 0.00 19 1019.8
20260501205903 90 161 0.0 0.0 0.00 0.00 0.00 19 1019.8
20260501205400 88 161 0.0 0.0 0.00 0.00 0.00 20 1020.0
20260501204857 86 161 0.0 0.0 0.00 0.00 0.00 25 1020.2
20260501204353 86 161 0.0 0.0 0.00 0.00 0.00 21 1020.3
20260501203849 83 160 0.0 0.0 0.00 0.00 0.00 23 1020.4
20260501203346 81 160 0.0 0.0 0.00 0.00 0.00 23 1020.3
20260501202843 79 161 0.0 0.0 0.00 0.00 0.00 22 1020.3
20260501202340 83 161 0.0 0.0 0.00 0.00 0.00 23 1020.4
20260501201837 85 160 0.0 0.0 0.00 0.00 0.00 21 1020.7
20260501201334 83 161 0.0 0.0 0.00 0.00 0.00 27 1020.8
20260501200830 82 160 0.0 0.0 0.00 0.00 0.00 23 1020.9
20260501200328 87 160 0.0 0.0 0.00 0.00 0.00 24 1021.1
20260501195825 85 160 0.0 0.0 0.00 0.00 0.00 22 1021.1
20260501195320 82 161 0.0 0.0 0.00 0.00 0.00 24 1021.0
20260501194811 83 161 0.0 0.0 0.00 0.00 0.00 23 1021.3
20260501194307 83 160 0.0 0.0 0.00 0.00 0.00 25 1021.2
20260501193804 84 161 0.0 0.0 0.00 0.00 0.00 26 1021.3
20260501193303 85 160 0.0 0.0 0.00 0.00 0.00 24 1021.6
20260501192800 84 160 0.0 0.0 0.00 0.00 0.00 24 1021.4
20260501192256 81 160 0.0 0.0 0.00 0.00 0.00 27 1021.7
20260501191753 87 160 0.0 0.0 0.00 0.00 0.00 22 1021.8
20260501191250 85 160 0.0 0.0 0.00 0.00 0.00 23 1021.4
20260501190748 85 160 0.0 0.0 0.00 0.00 0.00 22 1021.4
20260501190243 84 160 0.0 0.0 0.00 0.00 0.00 27 1021.6
20260501185739 83 160 0.0 0.0 0.00 0.00 0.00 28 1021.2
20260501185235 84 160 0.0 0.0 0.00 0.00 0.00 26 1021.3
20260501184731 81 160 0.0 0.0 0.00 0.00 0.00 25 1021.4
20260501184226 82 160 0.0 0.0 0.00 0.00 0.00 25 1021.6
20260501183723 87 160 0.0 0.0 0.00 0.00 0.00 20 1021.8
20260501183220 84 160 0.0 0.0 0.00 0.00 0.00 26 1021.9
20260501182716 85 160 0.0 0.0 0.00 0.00 0.00 23 1021.9